Regional Weather Roundup
Issued by NWS

Home | Current Version | Previous Version | Graphics & Text | Print | Product List | Glossary On
Versions: 1 2 3 4 5 6 7 8 9 10 11 12 13 14 15 16 17 18 19 20 21 22 23 24 25 26 27 28 29 30 31 32 33 34 35 36 37 38 39 40 41 42 43 44 45 46 47 48 49 50
000
ASUS45 KABQ 030801
RWRNM
WEATHER ROUNDUP FOR NEW MEXICO
NATIONAL WEATHER SERVICE ALBUQUERQUE NM
200 AM MDT SUN MAY 03 2015

NOTE: "FAIR" MEANS FEW OR NO CLOUDS BELOW 12,000 FEET AGL WITH NO
       SIGNIFICANT WEATHER OR OBSTRUCTIONS TO VISION.

      THIS PRODUCT IS RELEASED AS TWO VERSIONS.  ONE VERSION NEAR
      THE TOP OF THE HOUR CONTAINING PRELIMINARY DATA FROM ALBUQUERQUE
      AND OTHER STATIONS.  A FINAL VERSION WITH ADDITIONAL DATA IS
      ISSUED ABOUT 10 MINUTES AFTER THE HOUR.

NMZ501-503-504-510>518-030900-
NORTHWEST PLATEAU/NORTHCENTRAL MOUNTAINS

CITY           SKY/WX    TMP DP  RH WIND       PRES   REMARKS
FARMINGTON     PTCLDY    55  36  48 N6        30.02F
SANTA FE       PTCLDY    50  35  56 NE5       30.08S
TAOS           MOCLDY    43  30  61 NW6       30.14F
ANGEL FIRE     PTSUNNY   38  34  87 W6        30.20F WCI  33

$$
NMZ402-403-502-505>509-030900-
WESTCENTRAL MOUNTAINS/SOUTHWEST MOUNTAINS

CITY           SKY/WX    TMP DP  RH WIND       PRES   REMARKS
GALLUP         PTCLDY    44  40  85 E3        30.11F
GRANTS         MOCLDY    44  37  79 S3        30.13S
SILVER CITY      N/A     55  37  50 N9        30.09F

$$
NMZ407-409-411-412-030900-
SOUTHERN DESERTS

CITY           SKY/WX    TMP DP  RH WIND       PRES   REMARKS
DEMING         PTCLDY    62  39  42 NE7       30.01F
HOLLOMAN AFB   MOCLDY    71  35  26 W7        29.98R
ALAMOGORDO     MOCLDY    73  32  21 N7        30.00R
T OR C         CLOUDY    68  36  30 NW12      30.02F

$$
NMZ519>523-030900-
CENTRAL VALLEYS/CENTRAL HIGHLANDS

CITY           SKY/WX    TMP DP  RH WIND       PRES   REMARKS
ALBUQUERQUE    MOCLDY    56  35  45 SE3       30.05S
DOUBLE EAGLE   PTCLDY    51  38  61 SW6       30.08S
MORIARTY ARPT  FAIR      50  32  49 SW5       30.09F
CLINES CORNERS PTCLDY    51  30  44 W5        30.11F
BELEN          PTSUNNY   54  38  54 SW6       30.05S
SOCORRO        NOT AVBL

$$
NMZ524>526-539-540-030900-
SOUTHCENTRAL MOUNTAINS

CITY           SKY/WX    TMP DP  RH WIND       PRES   REMARKS
RUIDOSO        NOT AVBL

$$
NMZ527>531-030900-
NORTHEAST HIGHLANDS/NORTHEAST PLAINS

CITY           SKY/WX    TMP DP  RH WIND       PRES   REMARKS
LAS VEGAS      PTCLDY    44  34  67 SW9       30.10F
RATON          MOCLDY    49  34  56 W5        30.06S
CLAYTON        MOCLDY    57  40  52 NW12      29.96F

$$
NMZ532>537-030900-
EASTCENTRAL PLAINS

CITY           SKY/WX    TMP DP  RH WIND       PRES   REMARKS
TUCUMCARI      CLOUDY    66  40  38 W9        29.93S
CANNON AFB     PTCLDY    57  39  52 SE5       29.99F
CLOVIS AIRPORT PTCLDY    57  39  51 S10       29.99F

$$
NMZ028-029-538-030900-
SOUTHEAST PLAINS

CITY           SKY/WX    TMP DP  RH WIND       PRES   REMARKS
ROSWELL        PTCLDY    61  42  49 NW3       29.93R
ARTESIA        PTCLDY    63  46  55 SE10      29.93S
CARLSBAD       PTCLDY    66  47  50 SE16      29.90F
HOBBS          CLEAR     61  45  55 S13       29.96F


$$


USA.gov is the U.S. government's official web portal to all federal, state and local government web resources and services.